Tracking 19969 objects as of 12-Nov-2019
Live streaming from Space Station
objects crossing your sky now
Track the group of recently launched Starlink satellites

POLAR BEAR

Track POLAR BEAR now!
10-day predictions
POLAR BEAR is classified as:


NORAD ID: 17070
Int'l Code: 1986-088A
Perigee: 961.4 km
Apogee: 1,017.8 km
Inclination: 89.5 °
Period: 104.7 minutes
Semi major axis: 7360 km
RCS: 1.4926 m2 (large)
Launch date: November 14, 1986
Source: United States (US)
Launch site: AIR FORCE WESTERN TEST RANGE (AFWTR)
aabbcc
Your satellite tracking list
Your tracking list is empty




NASA's NSSDC Master Catalog

Two Line Element Set (TLE):
1 17070U 86088A   19315.93169568 +.00000031 +00000-0 +20613-4 0  9991
2 17070 089.5233 283.5097 0038302 345.2244 036.0612 13.74788385654356
Source of the keplerian elements: AFSPC